Total_Precipitation_Accumulation
0.06 0.04 0.03 0.02 0.01 0.01 0.01 0.01 0.01 0.01 0.02 0.03 0.03 0.03 0.03 0.02 0.03 0.04 0.06 0.07 0.07 0.06 0.07 0.07 0.07 0.07 0.09 0.09 0.09 0.11 0.12 0.18 0.21 0.11 0.05 0.06 0.11 0.18 0.26 0.29 0.30 0.28 0.25
0.06 0.04 0.02 0.02 0.01 0.01 0.01 0.01 0.02 0.02 0.03 0.03 0.04 0.03 0.03 0.03 0.04 0.06 0.06 0.06 0.06 0.06 0.06 0.07 0.07 0.07 0.08 0.07 0.08 0.09 0.11 0.16 0.23 0.20 0.10 0.06 0.09 0.15 0.20 0.21 0.21 0.20 0.22
0.05 0.02 0.01 0.01 0.01 0.01 0.02 0.02 0.02 0.03 0.04 0.04 0.03 0.03 0.03 0.04 0.06 0.06 0.06 0.05 0.06 0.06 0.06 0.07 0.07 0.08 0.07 0.06 0.08 0.10 0.12 0.16 0.21 0.23 0.14 0.09 0.12 0.19 0.26 0.25 0.22 0.26 0.24
0.03 0.02 0.02 0.02 0.02 0.02 0.03 0.03 0.03 0.04 0.04 0.03 0.03 0.03 0.04 0.05 0.04 0.03 0.03 0.03 0.04 0.04 0.05 0.07 0.08 0.08 0.09 0.11 0.12 0.13 0.16 0.18 0.19 0.20 0.15 0.10 0.13 0.18 0.24 0.31 0.31 0.28 0.27
0.04 0.03 0.03 0.02 0.02 0.03 0.04 0.04 0.03 0.03 0.03 0.03 0.03 0.03 0.03 0.03 0.01 0.00 0.00 0.01 0.01 0.02 0.04 0.07 0.08 0.08 0.12 0.13 0.13 0.14 0.18 0.21 0.22 0.22 0.17 0.14 0.13 0.19 0.24 0.28 0.29 0.30 0.27
0.05 0.04 0.03 0.02 0.02 0.03 0.03 0.03 0.03 0.04 0.03 0.03 0.02 0.01 0.01 0.01 0.00 0.00 0.00 0.00 0.01 0.02 0.05 0.06 0.04 0.04 0.05 0.05 0.08 0.13 0.18 0.22 0.25 0.27 0.23 0.18 0.14 0.17 0.24 0.30 0.31 0.32 0.26
0.08 0.05 0.04 0.03 0.03 0.03 0.02 0.02 0.03 0.02 0.02 0.02 0.01 0.01 0.01 0.01 0.00 0.00 0.00 0.00 0.02 0.04 0.07 0.06 0.04 0.03 0.04 0.07 0.09 0.12 0.15 0.21 0.27 0.32 0.29 0.20 0.17 0.20 0.30 0.37 0.32 0.32 0.32
0.09 0.06 0.04 0.03 0.03 0.02 0.02 0.02 0.02 0.02 0.02 0.02 0.02 0.01 0.02 0.01 0.00 0.00 0.00 0.01 0.02 0.04 0.05 0.05 0.06 0.06 0.07 0.09 0.11 0.15 0.16 0.18 0.25 0.32 0.31 0.27 0.27 0.28 0.33 0.34 0.31 0.32 0.27
0.07 0.05 0.03 0.02 0.02 0.02 0.02 0.02 0.02 0.02 0.02 0.01 0.01 0.01 0.02 0.02 0.00 0.00 0.00 0.01 0.02 0.02 0.03 0.04 0.06 0.06 0.08 0.09 0.14 0.19 0.21 0.27 0.44 0.61 0.58 0.51 0.50 0.46 0.34 0.27 0.27 0.30 0.30
0.03 0.02 0.01 0.01 0.01 0.01 0.01 0.02 0.02 0.02 0.01 0.01 0.01 0.02 0.03 0.03 0.01 0.00 0.01 0.02 0.02 0.02 0.02 0.02 0.04 0.07 0.08 0.11 0.16 0.23 0.31 0.40 0.62 0.81 0.71 0.61 0.52 0.47 0.41 0.29 0.31 0.39 0.36
0.02 0.01 0.01 0.01 0.00 0.01 0.01 0.01 0.02 0.01 0.01 0.01 0.02 0.02 0.03 0.02 0.02 0.00 0.01 0.02 0.03 0.04 0.04 0.05 0.08 0.13 0.12 0.14 0.22 0.32 0.46 0.56 0.71 0.85 0.68 0.49 0.39 0.31 0.31 0.32 0.33 0.31 0.25
0.01 0.01 0.01 0.01 0.00 0.00 0.01 0.01 0.01 0.01 0.01 0.01 0.01 0.02 0.02 0.03 0.02 0.01 0.00 0.01 0.03 0.05 0.09 0.11 0.16 0.20 0.18 0.22 0.33 0.49 0.63 0.72 0.71 0.71 0.55 0.37 0.27 0.25 0.27 0.26 0.20 0.15 0.14
0.01 0.01 0.01 0.00 0.00 0.00 0.00 0.00 0.01 0.01 0.01 0.01 0.01 0.02 0.02 0.02 0.03 0.01 0.01 0.01 0.03 0.06 0.13 0.23 0.27 0.25 0.30 0.39 0.55 0.69 0.75 0.73 0.68 0.56 0.42 0.32 0.22 0.19 0.19 0.19 0.16 0.13 0.13
0.01 0.01 0.01 0.01 0.00 0.00 0.00 0.00 0.01 0.01 0.01 0.02 0.02 0.03 0.04 0.04 0.04 0.03 0.03 0.04 0.05 0.07 0.11 0.23 0.34 0.37 0.47 0.61 0.71 0.74 0.74 0.76 0.67 0.48 0.37 0.29 0.21 0.17 0.17 0.15 0.15 0.15 0.16
0.00 0.00 0.01 0.01 0.01 0.01 0.00 0.00 0.01 0.01 0.01 0.02 0.03 0.04 0.07 0.07 0.05 0.04 0.06 0.07 0.09 0.12 0.14 0.19 0.23 0.31 0.46 0.60 0.68 0.70 0.68 0.69 0.63 0.48 0.38 0.30 0.24 0.20 0.19 0.16 0.15 0.15 0.18
0.01 0.01 0.01 0.00 0.00 0.00 0.01 0.01 0.01 0.00 0.00 0.01 0.02 0.04 0.05 0.06 0.04 0.03 0.04 0.07 0.10 0.15 0.17 0.24 0.33 0.40 0.50 0.60 0.67 0.71 0.67 0.60 0.54 0.48 0.42 0.35 0.29 0.25 0.23 0.20 0.17 0.17 0.18
0.00 0.00 0.00 0.00 0.00 0.00 0.01 0.02 0.03 0.03 0.01 0.01 0.01 0.02 0.03 0.03 0.03 0.02 0.03 0.05 0.08 0.14 0.19 0.31 0.43 0.50 0.55 0.60 0.61 0.60 0.62 0.58 0.50 0.43 0.40 0.37 0.31 0.26 0.23 0.21 0.18 0.16 0.16
0.00 0.00 0.00 0.00 0.00 0.00 0.01 0.02 0.03 0.04 0.05 0.05 0.03 0.01 0.01 0.03 0.04 0.03 0.04 0.04 0.06 0.12 0.24 0.39 0.48 0.53 0.56 0.59 0.56 0.53 0.54 0.53 0.46 0.38 0.34 0.32 0.30 0.25 0.22 0.19 0.16 0.12 0.10
0.00 0.00 0.00 0.00 0.00 0.00 0.01 0.01 0.02 0.03 0.04 0.05 0.04 0.02 0.02 0.03 0.04 0.06 0.07 0.06 0.10 0.17 0.27 0.38 0.46 0.49 0.48 0.49 0.49 0.48 0.47 0.46 0.41 0.36 0.33 0.31 0.29 0.24 0.20 0.14 0.10 0.07 0.06
0.00 0.00 0.00 0.00 0.00 0.00 0.01 0.01 0.02 0.03 0.04 0.05 0.04 0.03 0.03 0.06 0.07 0.08 0.08 0.09 0.12 0.18 0.25 0.35 0.41 0.42 0.40 0.37 0.36 0.36 0.36 0.36 0.34 0.32 0.30 0.29 0.27 0.23 0.18 0.12 0.09 0.07 0.05
0.00 0.00 0.00 0.00 0.00 0.00 0.00 0.01 0.01 0.02 0.03 0.04 0.04 0.04 0.08 0.09 0.12 0.14 0.16 0.18 0.19 0.21 0.23 0.26 0.32 0.35 0.34 0.32 0.28 0.26 0.26 0.28 0.27 0.25 0.24 0.22 0.20 0.18 0.14 0.10 0.07 0.04 0.03
0.00 0.00 0.00 0.00 0.00 0.00 0.00 0.00 0.00 0.01 0.02 0.02 0.03 0.04 0.08 0.09 0.12 0.17 0.22 0.25 0.27 0.26 0.23 0.22 0.24 0.26 0.27 0.27 0.25 0.23 0.22 0.22 0.22 0.21 0.20 0.18 0.16 0.13 0.10 0.07 0.05 0.03 0.02
0.00 0.00 0.00 0.00 0.00 0.00 0.00 0.00 0.00 0.00 0.01 0.01 0.02 0.03 0.05 0.09 0.14 0.20 0.26 0.27 0.27 0.27 0.24 0.21 0.24 0.28 0.27 0.23 0.21 0.20 0.19 0.19 0.18 0.19 0.19 0.18 0.14 0.11 0.08 0.05 0.03 0.02 0.02
0.00 0.00 0.00 0.00 0.00 0.00 0.00 0.00 0.00 0.00 0.00 0.00 0.01 0.03 0.04 0.07 0.12 0.18 0.23 0.26 0.27 0.28 0.29 0.30 0.31 0.31 0.27 0.23 0.20 0.18 0.18 0.19 0.18 0.20 0.19 0.16 0.12 0.09 0.06 0.03 0.02 0.01 0.01
0.00 0.00 0.00 0.00 0.00 0.00 0.00 0.00 0.00 0.00 0.00 0.00 0.01 0.02 0.03 0.04 0.07 0.10 0.15 0.19 0.22 0.24 0.27 0.30 0.30 0.29 0.25 0.21 0.16 0.13 0.15 0.16 0.14 0.16 0.19 0.15 0.11 0.08 0.05 0.03 0.02 0.01 0.01
0.00 0.00 0.00 0.00 0.00 0.00 0.00 0.00 0.00 0.00 0.00 0.00 0.00 0.01 0.02 0.03 0.05 0.08 0.10 0.12 0.13 0.16 0.20 0.26 0.28 0.22 0.15 0.11 0.10 0.10 0.08 0.06 0.05 0.07 0.14 0.15 0.11 0.09 0.07 0.04 0.02 0.01 0.01